When you browse on this site, cookies collect data to enhance your experience and personalize the content and advertising you see.
Visit our Privacy Policy to learn more. By continuing to use the site, you agree to this use of cookies and data.
  • In Hungary
  • List of Countries
  • For 7 days
  • Water Temperature
  • Satellite Maps
  • Weather Map
  • News
  • Weather Widgets
  • user-avatar
    Login

    Hourly Weather Laixi

    Today, 22 February, Friday

    Time Temperature Precipitation Wind Pressure Humidity
    00:00 +2°C° 0 mm 0 mps 764 mmHg 61%
    01:00 +1°C° 0 mm 0 mps 764 mmHg 61%
    02:00 +1°C° 0 mm 0 mps 763 mmHg 61%
    03:00 +1°C° 0 mm 0 mps 763 mmHg 61%
    04:00 +1°C° 0 mm 0 mps 763 mmHg 61%
    05:00 +1°C° 0 mm 0 mps 763 mmHg 61%
    06:00 +1°C° 0 mm 0 mps 763 mmHg 59%
    07:00 +2°C° 0 mm 0 mps 763 mmHg 56%
    08:00 +3°C° 0 mm 0 mps 763 mmHg 54%
    09:00 +5°C° 0 mm 1 mps 763 mmHg 50%
    10:00 +6°C° 0 mm 1 mps 763 mmHg 46%
    11:00 +7°C° 0 mm 2 mps 763 mmHg 42%
    12:00 +8°C° 0 mm 2 mps 763 mmHg 39%
    13:00 +8°C° 0 mm 2 mps 763 mmHg 36%
    14:00 +9°C° 0 mm 2 mps 763 mmHg 31%
    15:00 +9°C° 0 mm 2 mps 763 mmHg 33%
    16:00 +8°C° 0 mm 3 mps 763 mmHg 35%
    17:00 +8°C° 0 mm 3 mps 763 mmHg 36%
    18:00 +7°C° 0 mm 3 mps 763 mmHg 39%
    19:00 +4°C° 0 mm 3 mps 763 mmHg 42%
    20:00 +3°C° 0 mm 3 mps 764 mmHg 45%
    21:00 +3°C° 0 mm 2 mps 764 mmHg 46%
    22:00 +3°C° 0 mm 2 mps 764 mmHg 47%
    23:00 +3°C° 0 mm 2 mps 764 mmHg 48%

    Tomorrow, 23 February, Saturday

    Time Temperature Precipitation Wind Pressure Humidity
    00:00 +2°C° 0 mm 2 mps 764 mmHg 49%
    01:00 +2°C° 0 mm 2 mps 764 mmHg 51%
    02:00 +2°C° 0 mm 2 mps 764 mmHg 52%
    03:00 +2°C° 0 mm 2 mps 764 mmHg 54%
    04:00 +1°C° 0 mm 2 mps 764 mmHg 55%
    05:00 +1°C° 0 mm 2 mps 764 mmHg 57%
    06:00 +1°C° 0 mm 2 mps 764 mmHg 56%
    07:00 +2°C° 0 mm 2 mps 764 mmHg 55%
    08:00 +2°C° 0 mm 2 mps 764 mmHg 54%
    09:00 +5°C° 0 mm 2 mps 764 mmHg 46%
    10:00 +7°C° 0 mm 2 mps 764 mmHg 38%
    11:00 +9°C° 0 mm 2 mps 764 mmHg 29%
    12:00 +10°C° 0 mm 2 mps 764 mmHg 27%
    13:00 +12°C° 0 mm 2 mps 763 mmHg 24%
    14:00 +13°C° 0 mm 1 mps 763 mmHg 22%
    15:00 +13°C° 0 mm 1 mps 763 mmHg 25%
    16:00 +12°C° 0 mm 1 mps 763 mmHg 28%
    17:00 +12°C° 0 mm 1 mps 763 mmHg 31%
    18:00 +10°C° 0 mm 1 mps 763 mmHg 34%
    19:00 +8°C° 0 mm 1 mps 763 mmHg 38%
    20:00 +7°C° 0 mm 1 mps 764 mmHg 42%
    21:00 +6°C° 0 mm 1 mps 764 mmHg 43%
    22:00 +6°C° 0 mm 1 mps 764 mmHg 44%
    23:00 +5°C° 0 mm 1 mps 763 mmHg 45%

    Day after tomorrow, 24 February, Sunday

    Time Temperature Precipitation Wind Pressure Humidity
    00:00 +5°C° 0 mm 1 mps 763 mmHg 46%
    01:00 +5°C° 0 mm 1 mps 763 mmHg 47%
    02:00 +3°C° 0 mm 0 mps 763 mmHg 48%
    03:00 +3°C° 0 mm 0 mps 763 mmHg 50%
    04:00 +2°C° 0 mm 0 mps 763 mmHg 52%
    05:00 +2°C° 0 mm 0 mps 763 mmHg 53%
    06:00 +3°C° 0 mm 0 mps 763 mmHg 51%
    07:00 +3°C° 0 mm 0 mps 763 mmHg 50%
    08:00 +4°C° 0 mm 0 mps 763 mmHg 48%
    09:00 +7°C° 0 mm 1 mps 763 mmHg 41%
    10:00 +9°C° 0 mm 1 mps 763 mmHg 35%
    11:00 +11°C° 0 mm 1 mps 763 mmHg 28%
    12:00 +12°C° 0 mm 1 mps 763 mmHg 25%
    13:00 +13°C° 0 mm 1 mps 762 mmHg 23%
    14:00 +14°C° 0 mm 1 mps 762 mmHg 20%
    15:00 +13°C° 0 mm 1 mps 761 mmHg 22%
    16:00 +13°C° 0 mm 1 mps 761 mmHg 25%
    17:00 +12°C° 0 mm 2 mps 761 mmHg 28%
    18:00 +10°C° 0 mm 2 mps 762 mmHg 32%
    19:00 +8°C° 0 mm 2 mps 762 mmHg 37%
    20:00 +5°C° 0 mm 3 mps 762 mmHg 42%
    21:00 +5°C° 0 mm 3 mps 763 mmHg 44%
    22:00 +4°C° 0 mm 3 mps 763 mmHg 47%
    23:00 +4°C° 0 mm 2 mps 763 mmHg 50%

    25 February, Monday

    Time Temperature Precipitation Wind Pressure Humidity
    00:00 +4°C° 0 mm 2 mps 764 mmHg 50%
    01:00 +3°C° 0 mm 2 mps 764 mmHg 49%
    02:00 +3°C° 0 mm 2 mps 764 mmHg 49%
    03:00 +2°C° 0 mm 3 mps 764 mmHg 48%
    04:00 +1°C° 0 mm 3 mps 764 mmHg 47%
    05:00 +1°C° 0 mm 3 mps 764 mmHg 46%
    06:00 +1°C° 0 mm 3 mps 765 mmHg 45%
    07:00 +2°C° 0 mm 3 mps 765 mmHg 44%
    08:00 +2°C° 0 mm 3 mps 766 mmHg 42%
    09:00 +4°C° 0 mm 3 mps 766 mmHg 38%
    10:00 +5°C° 0 mm 3 mps 766 mmHg 33%
    11:00 +7°C° 0 mm 4 mps 766 mmHg 28%
    12:00 +8°C° 0 mm 4 mps 766 mmHg 27%
    13:00 +9°C° 0 mm 3 mps 766 mmHg 26%
    14:00 +10°C° 0 mm 3 mps 765 mmHg 24%
    15:00 +9°C° 0 mm 3 mps 765 mmHg 26%
    16:00 +9°C° 0 mm 3 mps 765 mmHg 27%
    17:00 +8°C° 0 mm 3 mps 765 mmHg 28%
    18:00 +7°C° 0 mm 3 mps 765 mmHg 31%
    19:00 +4°C° 0 mm 3 mps 766 mmHg 33%
    20:00 +4°C° 0 mm 2 mps 766 mmHg 36%
    21:00 +3°C° 0 mm 2 mps 766 mmHg 36%
    22:00 +3°C° 0 mm 2 mps 766 mmHg 36%
    23:00 +2°C° 0 mm 2 mps 767 mmHg 36%

    26 February, Tuesday

    Time Temperature Precipitation Wind Pressure Humidity
    00:00 +3°C° 0 mm 1 mps 767 mmHg 35%
    01:00 +2°C° 0 mm 1 mps 767 mmHg 34%
    02:00 +2°C° 0 mm 1 mps 767 mmHg 33%
    03:00 +2°C° 0 mm 1 mps 766 mmHg 33%
    04:00 +2°C° 0 mm 1 mps 766 mmHg 32%
    05:00 +1°C° 0 mm 1 mps 766 mmHg 31%
    06:00 +2°C° 0 mm 1 mps 766 mmHg 31%
    07:00 +3°C° 0 mm 1 mps 766 mmHg 31%
    08:00 +3°C° 0 mm 1 mps 766 mmHg 30%
    09:00 +4°C° 0 mm 2 mps 766 mmHg 28%
    10:00 +6°C° 0 mm 2 mps 766 mmHg 25%
    11:00 +8°C° 0 mm 2 mps 766 mmHg 22%
    12:00 +8°C° 0 mm 2 mps 766 mmHg 22%
    13:00 +9°C° 0 mm 3 mps 765 mmHg 23%
    14:00 +10°C° 0 mm 3 mps 765 mmHg 23%
    15:00 +9°C° 0 mm 3 mps 765 mmHg 26%
    16:00 +9°C° 0 mm 3 mps 764 mmHg 29%
    17:00 +8°C° 0 mm 2 mps 764 mmHg 32%
    18:00 +7°C° 0 mm 2 mps 764 mmHg 36%
    19:00 +6°C° 0 mm 2 mps 764 mmHg 40%
    20:00 +5°C° 0 mm 2 mps 765 mmHg 43%
    21:00 +4°C° 0 mm 2 mps 765 mmHg 46%
    22:00 +4°C° 0 mm 2 mps 765 mmHg 48%
    23:00 +3°C° 0 mm 2 mps 765 mmHg 50%

    27 February, Wednesday

    Time Temperature Precipitation Wind Pressure Humidity
    00:00 +4°C° 0 mm 1 mps 765 mmHg 52%
    01:00 +4°C° 0 mm 1 mps 764 mmHg 53%
    02:00 +4°C° 0 mm 1 mps 764 mmHg 55%
    03:00 +3°C° 0 mm 1 mps 764 mmHg 56%
    04:00 +3°C° 0 mm 1 mps 763 mmHg 57%
    05:00 +2°C° 0 mm 0 mps 763 mmHg 58%
    06:00 +4°C° 0 mm 1 mps 763 mmHg 56%
    07:00 +4°C° 0 mm 1 mps 763 mmHg 54%
    08:00 +5°C° 0 mm 1 mps 763 mmHg 52%
    09:00 +6°C° 0 mm 1 mps 763 mmHg 47%
    10:00 +7°C° 0 mm 2 mps 763 mmHg 41%
    11:00 +9°C° 0 mm 2 mps 763 mmHg 36%
    12:00 +10°C° 0 mm 2 mps 762 mmHg 34%
    13:00 +12°C° 0 mm 2 mps 762 mmHg 31%
    14:00 +13°C° 0 mm 2 mps 761 mmHg 29%
    15:00 +12°C° 0 mm 2 mps 761 mmHg 31%
    16:00 +12°C° 0 mm 2 mps 761 mmHg 33%
    17:00 +10°C° 0 mm 2 mps 761 mmHg 35%
    18:00 +9°C° 0 mm 2 mps 761 mmHg 39%
    19:00 +7°C° 0 mm 2 mps 761 mmHg 43%
    20:00 +6°C° 0 mm 2 mps 761 mmHg 47%
    21:00 +5°C° 0 mm 2 mps 761 mmHg 47%
    22:00 +5°C° 0 mm 2 mps 761 mmHg 47%
    23:00 +5°C° 0 mm 1 mps 761 mmHg 48%
    Show more